COSMOS 1275 DEB, 12662

Orbit data source: Space-Track

COSMOS 1275 DEB, 12662 is space debris in LEO originally from a launch on Thu, 04 Jun 1981 UTC launched from the Plesetsk Missile And Space Complex (PKMTR). Debris objects in space refer to the collection of defunct objects orbiting the Earth. Examples of debris include non-operational satellites, rocket bodies, and fragments generated from explosions, collisions, or faulty payload assembly.

Loading next visibility...
Identifier
12662, 1981-053S
Orbit
LEO
Country
Flag of CISCIS
Related business
Manufacturer
Unknown
Mission
Spacecraft
Bus & Motor
Unknown
Mass
Unknown
Launch date (UTC)
1981-06-04 (45 years ago)
Launch vehicle
Unknown
Launch site
Plesetsk Missile And Space Complex (PKMTR)
Object type
Payload
Rocket body
Debris
Shape & HBR
Unknown shape, 0.6 m
Radar Cross Section
Medium (>0.1 m² and <1 m²)

Expand to show TLE details & history
Last TLE update: 8 hours ago

TLE from 8 hours ago
0 COSMOS 1275 DEB
1 12662U 81053S   26074.32324109  .00000193  00000-0  17710-3 0  9999
2 12662  82.9539 291.1803 0020982 282.5329 252.3973 13.78168348241806
Epoch: 2026-03-15T07:45Z
TLE epoch observation values (Epoch: 2026-03-15T07:45:28.030Z)
Latitude
5.17514°
Longitude
-178.75629°
Altitude
977.466 km
Speed
7.361 km/s
True Right ascension
07h 22m 10s
True Declination
5° 08' 43"
Sunlit
Object was in daylight at epoch
Visualization orbit readout
Latitude
Unknown
Longitude
Unknown
Altitude
Unknown
Speed
Unknown
Apparent Right ascension
Unknown
Apparent Declination
Unknown
Sunlit
N/A
Visualization observer readout
Local Sidereal Time
19:53:45
Azimuth
Unknown
Elevation
Unknown
Doppler factor
Unknown
Orbital elements
Apogee altitude
982.947 km
Perigee altitude
952.122 km
Semi-major axis
7,345.672 km
Eccentricity
0.0021
Inclination
82.9539°
RAAN
291.1803°
Arg. of periapsis
282.5329°
True anomaly
252.1683°
Mean anomaly
252.3973°
Eccentric anomaly
252.28278°
Mean motion
3.44743 °/min
Orbital period
104.43 mins
BSTAR
0.0001771
Loading maneuver chart data...
Computing Atmospheric mass density...

Documentation

Showing up to 5 results
|